Starlink 31091

operational
NORAD ID: 58629 Int'l Des: 2023-203 Owner: SPXS Country: US Constellation: starlink
LEOCIRCULAR

About Starlink 31091

Description loading...

Live Position

Loading 3D Globe...

Upcoming Passes

Altitude History

Altitude vs Time

uPlot chart will show altitude changes over time

Two-Line Element Set

1 58629U 23203M 25303.73172767 .00035945 00000-0 13159-2 0 9990
2 58629 43.0003 84.6748 0002891 248.3223 111.7321 15.27414744103642
Epoch: Oct 30, 2025 • Age: 7 hours

Current Status

Altitude 494.9 km
Velocity 7.62 km/s
Sub-Earth Point -42.94°S, 55.13°W
Launch Date Dec 23, 2023
Age 1.8 years
Type internet

Technical Details

Classification Payload
Mass 730.00 kg
Dry Mass 700.00 kg
Total Mass 730.00 kg
Length 0.30 m
Diameter 4.10 m
Span 29.00 m
Shape Box + pan
Manufacturer SPXS
Bus Type Starlink V2M
Phase Status In Orbit
Owner/State SPXS/US

Large Constellations

Loading constellations...